Find Starlink 32871

NORAD ID: 62924 Int'l Des: 2025-027 Owner: SPXS Country: US Constellation: starlink operational
LEOCIRCULAR

Live Position

Loading 3D Globe...

About Starlink 32871

Description loading...

Upcoming Passes

Passes for default location (London). Set your location on the main map for personalized predictions.

Altitude History

Loading altitude history...

Two-Line Element Set

1 62924U 25027T 26125.19253176 .00019233 00000-0 70621-3 0 9996
2 62924 42.9966 169.7663 0001645 272.3658 87.7005 15.27599272 70180
Epoch: May 5, 2026 • Age: 6 hours

Current Status

Altitude 483.6 km
Velocity 7.63 km/s
Sub-Earth Point -5.83°S, 20.82°W
Launch Date Feb 8, 2025
Age 1.2 years
Type internet

Technical Details

Classification Payload
Mass 730.00 kg
Dry Mass 700.00 kg
Total Mass 730.00 kg
Length 0.30 m
Diameter 4.10 m
Span 29.00 m
Shape Box + pan
Manufacturer SPXS
Bus Type Starlink V2M
Phase Status In Orbit
Owner/State SPXS/US

Most Searched